When you browse on this site, cookies collect data to enhance your experience and personalize the content and advertising you see.
Visit our Privacy Policy to learn more. By continuing to use the site, you agree to this use of cookies and data.
  • In United Kingdom
  • List of Countries
  • For 7 days
  • Water Temperature
  • Weather Map
  • Weather Widgets
  • user-avatar
    Login

    Hourly Weather Gloucester

    Today, 1 June, Monday

    Time Temperature Precipitation Wind Pressure Humidity
    00:00 +10°C° 0 mm 3 mps 762 mmHg 87%
    01:00 +9°C° 0 mm 3 mps 761 mmHg 88%
    02:00 +8°C° 0 mm 3 mps 761 mmHg 90%
    03:00 +7°C° 0 mm 3 mps 761 mmHg 92%
    04:00 +8°C° 0 mm 3 mps 761 mmHg 90%
    05:00 +9°C° 0 mm 3 mps 762 mmHg 89%
    06:00 +10°C° 0 mm 3 mps 762 mmHg 87%
    07:00 +12°C° 0 mm 4 mps 762 mmHg 83%
    08:00 +14°C° 0 mm 4 mps 761 mmHg 80%
    09:00 +17°C° 0 mm 4 mps 761 mmHg 76%
    10:00 +19°C° 0 mm 4 mps 761 mmHg 72%
    11:00 +20°C° 0 mm 4 mps 761 mmHg 67%
    12:00 +21°C° 0 mm 4 mps 761 mmHg 63%
    13:00 +21°C° 0 mm 4 mps 761 mmHg 63%
    14:00 +21°C° 0 mm 4 mps 761 mmHg 63%
    15:00 +22°C° 0 mm 4 mps 761 mmHg 64%
    16:00 +21°C° 0 mm 3 mps 761 mmHg 68%
    17:00 +21°C° 0 mm 3 mps 761 mmHg 72%
    18:00 +20°C° 0 mm 3 mps 760 mmHg 77%
    19:00 +19°C° 0 mm 3 mps 761 mmHg 82%
    20:00 +17°C° 0 mm 3 mps 761 mmHg 87%
    21:00 +14°C° 0 mm 3 mps 761 mmHg 92%
    22:00 +13°C° 0 mm 3 mps 761 mmHg 93%
    23:00 +13°C° 0 mm 2 mps 761 mmHg 93%

    Tomorrow, 2 June, Tuesday

    Time Temperature Precipitation Wind Pressure Humidity
    00:00 +12°C° 0 mm 2 mps 761 mmHg 94%
    01:00 +10°C° 0 mm 2 mps 761 mmHg 94%
    02:00 +10°C° 0 mm 2 mps 761 mmHg 93%
    03:00 +9°C° 0 mm 2 mps 761 mmHg 93%
    04:00 +9°C° 0 mm 2 mps 761 mmHg 91%
    05:00 +10°C° 0 mm 2 mps 761 mmHg 89%
    06:00 +10°C° 0 mm 2 mps 761 mmHg 87%
    07:00 +13°C° 0 mm 2 mps 761 mmHg 80%
    08:00 +14°C° 0 mm 3 mps 760 mmHg 74%
    09:00 +17°C° 0 mm 3 mps 760 mmHg 67%
    10:00 +18°C° 0 mm 3 mps 760 mmHg 64%
    11:00 +19°C° 0 mm 2 mps 760 mmHg 60%
    12:00 +20°C° 0 mm 2 mps 759 mmHg 57%
    13:00 +20°C° 0 mm 2 mps 759 mmHg 56%
    14:00 +21°C° 0 mm 2 mps 758 mmHg 55%
    15:00 +21°C° 0 mm 2 mps 758 mmHg 55%
    16:00 +21°C° 0 mm 2 mps 757 mmHg 59%
    17:00 +20°C° 0 mm 2 mps 757 mmHg 64%
    18:00 +20°C° 0 mm 2 mps 756 mmHg 68%
    19:00 +19°C° 0 mm 1 mps 756 mmHg 72%
    20:00 +16°C° 0 mm 1 mps 756 mmHg 75%
    21:00 +14°C° 0 mm 1 mps 756 mmHg 79%
    22:00 +13°C° 0 mm 1 mps 755 mmHg 79%
    23:00 +13°C° 0 mm 1 mps 755 mmHg 79%

    Day after tomorrow, 3 June, Wednesday

    Time Temperature Precipitation Wind Pressure Humidity
    00:00 +13°C° 0 mm 1 mps 754 mmHg 79%
    01:00 +13°C° 0 mm 1 mps 754 mmHg 79%
    02:00 +12°C° 0 mm 1 mps 753 mmHg 79%
    03:00 +12°C° 0 mm 1 mps 753 mmHg 79%
    04:00 +13°C° 0.1 mm 1 mps 752 mmHg 80%
    05:00 +13°C° 0.1 mm 2 mps 752 mmHg 81%
    06:00 +14°C° 0.1 mm 2 mps 751 mmHg 81%
    07:00 +14°C° 0.5 mm 2 mps 751 mmHg 85%
    08:00 +13°C° 0.5 mm 2 mps 751 mmHg 88%
    09:00 +13°C° 0.5 mm 2 mps 751 mmHg 91%
    10:00 +13°C° 0.4 mm 3 mps 751 mmHg 90%
    11:00 +13°C° 0.4 mm 3 mps 751 mmHg 89%
    12:00 +14°C° 0.4 mm 4 mps 751 mmHg 88%
    13:00 +14°C° 0.3 mm 4 mps 751 mmHg 87%
    14:00 +14°C° 0.3 mm 5 mps 751 mmHg 85%
    15:00 +14°C° 0.3 mm 6 mps 751 mmHg 84%
    16:00 +13°C° 0.1 mm 6 mps 751 mmHg 83%
    17:00 +13°C° 0.1 mm 6 mps 751 mmHg 82%
    18:00 +11°C° 0.1 mm 6 mps 750 mmHg 81%
    19:00 +12°C° 0 mm 5 mps 751 mmHg 81%
    20:00 +12°C° 0 mm 5 mps 751 mmHg 81%
    21:00 +10°C° 0 mm 5 mps 751 mmHg 81%
    22:00 +10°C° 0 mm 4 mps 751 mmHg 86%
    23:00 +8°C° 0 mm 4 mps 751 mmHg 90%

    4 June, Thursday

    Time Temperature Precipitation Wind Pressure Humidity
    00:00 +9°C° 0 mm 3 mps 751 mmHg 94%
    01:00 +8°C° 0 mm 3 mps 751 mmHg 94%
    02:00 +8°C° 0 mm 3 mps 750 mmHg 93%
    03:00 +8°C° 0 mm 3 mps 750 mmHg 92%
    04:00 +8°C° 0 mm 4 mps 750 mmHg 89%
    05:00 +8°C° 0 mm 4 mps 750 mmHg 86%
    06:00 +10°C° 0 mm 4 mps 750 mmHg 83%
    07:00 +11°C° 0 mm 4 mps 750 mmHg 78%
    08:00 +12°C° 0 mm 4 mps 750 mmHg 73%
    09:00 +13°C° 0 mm 5 mps 750 mmHg 69%
    10:00 +13°C° 0.1 mm 4 mps 750 mmHg 70%
    11:00 +13°C° 0.1 mm 4 mps 749 mmHg 71%
    12:00 +13°C° 0.1 mm 4 mps 749 mmHg 73%
    13:00 +13°C° 0.2 mm 3 mps 749 mmHg 73%
    14:00 +13°C° 0.2 mm 3 mps 748 mmHg 74%
    15:00 +13°C° 0.2 mm 3 mps 748 mmHg 74%
    16:00 +14°C° 0.2 mm 2 mps 748 mmHg 76%
    17:00 +14°C° 0.2 mm 2 mps 748 mmHg 78%
    18:00 +14°C° 0.2 mm 2 mps 748 mmHg 80%
    19:00 +13°C° 0.1 mm 2 mps 748 mmHg 83%
    20:00 +12°C° 0.1 mm 2 mps 748 mmHg 86%
    21:00 +9°C° 0.1 mm 3 mps 748 mmHg 89%
    22:00 +9°C° 0 mm 3 mps 748 mmHg 90%
    23:00 +9°C° 0 mm 2 mps 748 mmHg 91%

    5 June, Friday

    Time Temperature Precipitation Wind Pressure Humidity
    00:00 +8°C° 0 mm 2 mps 748 mmHg 93%
    01:00 +8°C° 0 mm 2 mps 747 mmHg 93%
    02:00 +8°C° 0 mm 2 mps 747 mmHg 93%
    03:00 +8°C° 0 mm 2 mps 747 mmHg 93%
    04:00 +8°C° 0 mm 2 mps 747 mmHg 93%
    05:00 +9°C° 0 mm 3 mps 746 mmHg 93%
    06:00 +10°C° 0 mm 3 mps 746 mmHg 92%
    07:00 +11°C° 0 mm 4 mps 746 mmHg 90%
    08:00 +10°C° 0 mm 5 mps 746 mmHg 88%
    09:00 +12°C° 0 mm 5 mps 746 mmHg 86%
    10:00 +13°C° 0.1 mm 6 mps 745 mmHg 83%
    11:00 +14°C° 0.1 mm 7 mps 745 mmHg 80%
    12:00 +15°C° 0.1 mm 8 mps 745 mmHg 76%
    13:00 +15°C° 0.1 mm 8 mps 745 mmHg 73%
    14:00 +15°C° 0.1 mm 8 mps 745 mmHg 70%
    15:00 +15°C° 0.1 mm 8 mps 745 mmHg 67%
    16:00 +15°C° 0 mm 8 mps 745 mmHg 67%
    17:00 +14°C° 0 mm 7 mps 745 mmHg 68%
    18:00 +14°C° 0 mm 7 mps 745 mmHg 68%
    19:00 +11°C° 0 mm 6 mps 745 mmHg 71%
    20:00 +10°C° 0 mm 5 mps 746 mmHg 75%
    21:00 +8°C° 0 mm 4 mps 746 mmHg 79%
    22:00 +8°C° 0 mm 4 mps 746 mmHg 78%
    23:00 +8°C° 0 mm 4 mps 747 mmHg 77%

    6 June, Saturday

    Time Temperature Precipitation Wind Pressure Humidity
    00:00 +8°C° 0 mm 4 mps 747 mmHg 77%
    01:00 +8°C° 0 mm 5 mps 747 mmHg 78%
    02:00 +7°C° 0 mm 5 mps 748 mmHg 79%
    03:00 +7°C° 0 mm 5 mps 748 mmHg 80%
    04:00 +7°C° 0 mm 5 mps 749 mmHg 78%
    05:00 +8°C° 0 mm 5 mps 749 mmHg 76%
    06:00 +8°C° 0 mm 6 mps 750 mmHg 75%
    07:00 +9°C° 0 mm 6 mps 750 mmHg 71%
    08:00 +12°C° 0 mm 5 mps 750 mmHg 67%
    09:00 +13°C° 0 mm 5 mps 750 mmHg 63%
    10:00 +13°C° 0.1 mm 6 mps 751 mmHg 60%
    11:00 +14°C° 0.1 mm 6 mps 751 mmHg 57%
    12:00 +14°C° 0.1 mm 6 mps 751 mmHg 55%
    13:00 +14°C° 0.1 mm 6 mps 751 mmHg 55%
    14:00 +14°C° 0.1 mm 6 mps 751 mmHg 55%
    15:00 +14°C° 0.1 mm 6 mps 751 mmHg 55%
    16:00 +13°C° 0.1 mm 6 mps 751 mmHg 60%
    17:00 +11°C° 0.1 mm 6 mps 751 mmHg 65%
    18:00 +10°C° 0.1 mm 5 mps 752 mmHg 69%
    19:00 +10°C° 0.1 mm 4 mps 752 mmHg 75%
    20:00 +7°C° 0.1 mm 4 mps 752 mmHg 80%
    21:00 +5°C° 0.1 mm 3 mps 753 mmHg 86%
    22:00 +4°C° 0 mm 3 mps 753 mmHg 86%
    23:00 +5°C° 0 mm 2 mps 753 mmHg 87%
    Show more